This demonstration page uses our WeatherBlox Daily Observations layout. Learn more.

39.29038, -76.61219

Hourly Observations for October 25, 2020

Temp ( °F °C ) Dew Point ( °F °C ) Humidity (%) Winds ( mph kmh ) Pressure ( in mb ) Visibility ( mi km ) Precip ( " mm )
12:54 am 00:54 Mostly Cloudy 56 13.3 39 3.9 53 53 NNE 7 11 30.1 1019 10 16.0934 0 0
1:54 am 01:54 Cloudy 54 12.2 38 3.3 55 55 NNE 12 19 30.1 1019 10 16.0934 0 0
2:54 am 02:54 Cloudy 53 11.7 36 2.2 52 52 NNE 9 15 30.11 1020 10 16.0934 0 0
3:54 am 03:54 Cloudy 52 11.1 36 2.2 55 55 NNE 9 15 30.12 1020 10 16.0934 0 0
4:54 am 04:54 Cloudy 51 10.6 37 2.8 59 59 N 7 11 30.13 1020 10 16.0934 0 0
5:54 am 05:54 Cloudy with Light Rain 50 10 39 3.9 66 66 NE 8 13 30.15 1021 10 16.0934 0.001 0.001
6:54 am 06:54 Cloudy with Light Rain 49 9.4 39 3.9 69 69 NE 9 15 30.16 1022 7 11.26538 0.01 0.254
7:54 am 07:54 Cloudy with Light Rain 48 8.9 39 3.9 71 71 NE 9 15 30.19 1022 7 11.26538 0.02 0.508
8:54 am 08:54 Cloudy with Light Rain 47 8.3 39 3.9 74 74 ENE 9 15 30.21 1023 7 11.26538 0.03 0.762
9:54 am 09:54 Cloudy 47 8.3 39 3.9 74 74 NE 7 11 30.23 1024 10 16.0934 0.02 0.508
10:54 am 10:54 Cloudy 48 8.9 38 3.3 68 68 ENE 9 15 30.22 1024 10 16.0934 0 0
11:27 am 11:27 Cloudy 49 9.4 39 3.9 69 69 ENE 10 17 30.22 1023 10 16.0934 0 0
11:34 am 11:34 Cloudy 49 9.4 40 4.4 71 71 NE 9 15 30.23 1024 10 16.0934 0 0
11:54 am 11:54 Cloudy 49 9.4 39 3.9 69 69 NE 9 15 30.22 1023 10 16.0934 0 0
12:54 pm 12:54 Cloudy 49 9.4 39 3.9 69 69 NE 8 13 30.22 1023 10 16.0934 0 0
1:54 pm 13:54 Cloudy 49 9.4 41 5 74 74 VRB 5 7 30.21 1023 10 16.0934 0 0
2:54 pm 14:54 Cloudy 48 8.9 42 5.6 80 80 N 9 15 30.19 1022 10 16.0934 0 0
3:54 pm 15:54 Cloudy 48 8.9 43 6.1 83 83 N 6 9 30.19 1022 7 11.26538 0.01 0.254
4:33 pm 16:33 Cloudy with Light Rain 47 8.3 44 6.7 90 90 N 7 11 30.19 1023 8 12.87472 0.001 0.001
4:54 pm 16:54 Cloudy 47 8.3 44 6.7 90 90 NNE 7 11 30.19 1022 10 16.0934 0.001 0.001
5:54 pm 17:54 Cloudy 48 8.9 43 6.1 83 83 NNE 9 15 30.19 1022 10 16.0934 0 0
6:54 pm 18:54 Cloudy 48 8.9 42 5.6 80 80 NE 9 15 30.19 1023 10 16.0934 0 0
7:54 pm 19:54 Cloudy 49 9.4 43 6.1 80 80 NE 8 13 30.2 1023 10 16.0934 0 0
8:54 pm 20:54 Cloudy 49 9.4 43 6.1 80 80 NE 12 19 30.19 1023 10 16.0934 0 0
9:54 pm 21:54 Cloudy 49 9.4 43 6.1 80 80 NE 8 13 30.2 1023 10 16.0934 0 0
10:54 pm 22:54 Cloudy with Mist and Fog 48 8.9 44 6.7 86 86 NNE 7 11 30.21 1023 6 9.65604 0 0
11:54 pm 23:54 Cloudy 48 8.9 44 6.7 86 86 NE 8 13 30.19 1022 8 12.87472 0 0

Powered by AerisWeather